Hovedside
METAR-TAF:

METAR-TAF

Lufthavner :

Leknes, Norge

Leknes lufthavn

breddegrad: 68-09N, lengdegrad: 013-37E, høyde over havet: 2 m

Gjeldene værobservasjon

Denne rapporten ble laget for 1 time og 15 minutter siden, klokken 09:50 UTC
Vind 14 kt fra Nord
Temperatur 5°C
Luftfuktighet 52%
Trykk 1012 hPa
Sikt 10 km eller mer
Få skyer i en høyde av 3000 ft

METAR: ENLK 270950Z 01014KT 9999 FEW030 05/M04 Q1012

Tid: 13:05 (11:05 UTC)


TAF: fraværende

Værobservasjoner og værvarsel for over 4000 flyplasser (METAR- og TAF-rapporter).

Tilgjengelige stasjoner er representert av de røde og gule prikkene på kartet.

Hold musepekeren over prikken for å se navnet på stasjonen.

Klikk så for å se værobservasjoner og -varsler.

For å forandre kartet kan du klikke på den grønne knappen med svart kryss for å zoome inn, på den grønne knappen med strek for å zoome ut, eller på de grønne pilene for å se tilstøtende kart.


METAR-TAF: